Regional Weather Roundup
Issued by NWS

Home | Current Version | Previous Version | Text Only | Print | Product List | Glossary Off
Versions: 1 2 3 4 5 6 7 8 9 10 11 12 13 14 15 16 17 18 19 20 21 22 23 24 25 26 27 28 29 30 31 32 33 34 35 36 37 38 39 40 41 42 43 44 45 46 47 48 49 50

000
ASUS43 KLOT 250606
RWRIL

ILLINOIS REGIONAL WEATHER ROUNDUP
NATIONAL WEATHER SERVICE CHICAGO/ROMEOVILLE IL
100 AM CDT SAT OCT 25 2014

NOTE: "FAIR" INDICATES FEW OR NO CLOUDS BELOW 12,000 FEET WITH NO
SIGNIFICANT WEATHER AND/OR OBSTRUCTIONS TO VISIBILITY.

* THESE STATIONS ARE NOT UNDER NWS QUALITY CONTROL. THEY ALSO MAY NOT
  REPORT WEATHER SUCH AS PRECIPITATION OR FOG.

ILZ001-002-007-009-015-016-024-250700-
NORTHWEST ILLINOIS

CITY           SKY/WX    TMP DP  RH WIND       PRES   REMARKS
MOLINE         FOG       54  52  93 W6        29.94S VSB 1/2
6HR MIN TEMP:  52; 6HR MAX TEMP:  63;

STERLING*      MOCLDY    55  50  82 W5        29.93F
SAVANNA*       CLOUDY    60  57  89 W7        29.92F FOG
$$

ILZ003-004-008-010-011-017-018-250700-
NORTH CENTRAL ILLINOIS

CITY           SKY/WX    TMP DP  RH WIND       PRES   REMARKS
ROCKFORD       PTCLDY    56  50  80 SW6       29.93F
6HR MIN TEMP:  55; 6HR MAX TEMP:  60;

FREEPORT*      PTCLDY    56  55  95 W6        29.93F FOG
ROCHELLE*      CLOUDY    55  50  84 W6        29.93F
DE KALB*       MOCLDY    54  48  80 W6        29.92F
PERU*          CLOUDY    56  52  85 W5        29.93F
$$

ILZ005-006-012>014-019>023-250700-
NORTHEAST ILLINOIS

CITY           SKY/WX    TMP DP  RH WIND       PRES   REMARKS
CHICAGO-OHARE  MOCLDY    59  50  72 SW6       29.91F
6HR MIN TEMP:  56; 6HR MAX TEMP:  62;

CHICAGO-MIDWAY CLOUDY    60  51  72 SW7       29.92F
6HR MIN TEMP:  60; 6HR MAX TEMP:  65;

AURORA         CLOUDY    57  50  77 CALM      29.92F
6HR MIN TEMP:  52; 6HR MAX TEMP:  61;

LANSING*       CLOUDY    57  51  81 S5        29.93F
JOLIET*        CLOUDY    55  52  90 CALM      29.93S
WAUKEGAN       MOCLDY    54  48  80 SW7       29.88F
6HR MIN TEMP:  49; 6HR MAX TEMP:  57; 6HR PCP:  0.01;

DUPAGE AIRPORT CLOUDY    57  50  77 SW7       29.91F
6HR MIN TEMP:  52; 6HR MAX TEMP:  60; 6HR PCP: TRACE;

KANKAKEE*      CLOUDY    57  53  88 S7        29.94S
WHEELING       CLOUDY    61  49  64 SW7       29.92F
6HR MIN TEMP:  56; 6HR MAX TEMP:  63; 6HR PCP: TRACE;

MORRIS*        CLOUDY    55  54  95 NW5       29.92S
ROMEOVILLE*    CLOUDY    57  52  83 SW3       29.93S
NORTHERLY ISL    N/A     61  50  67 W8          N/A
$$

LMZ740>746-250700-
SOUTHERN LAKE MICHIGAN

STATION/POSITION SKY/WX   TEMP    WIND        PRES    VSBY  WAVE
                          AIR SEA DIR/SP/G                  HT/PER
                          (F)     (DEG/KT/KT) (MB)    (MI)  (FT/S)
SOUTHERN BUOY              57 54  200/ 12/ 14 1012.0F
WAUKEGAN HARBOR            60     220/  8/ 11   N/A
HARRISON CRIB              62     220/ 14/ 18   N/A
BURNHAM HARBOR             60     180/  3/  9   N/A
CALUMET HARBOR             60     210/  5/  8 1012.0S
MICHIGAN CITY              58     170/  7/ 11   N/A
$$

ILZ025>027-034>036-040-047-049-050-058-095>099-250700-
WEST-CENTRAL ILLINOIS

CITY           SKY/WX    TMP DP  RH WIND       PRES   REMARKS
QUINCY         MOCLDY    60  58  92 W8        29.96S
GALESBURG*     MOCLDY    53  50  91 CALM      29.95S
MACOMB*        MOCLDY    50  49  97 CALM      29.97S
JACKSONVILLE*  MOCLDY    63  56  77 SW9       29.95S
PITTSFIELD*    PTCLDY    63  58  83 SW7       29.97S
$$

ILZ028>032-037-038-041>044-048-051>054-059>061-250700-
CENTRAL ILLINOIS

CITY           SKY/WX    TMP DP  RH WIND       PRES   REMARKS
PONTIAC        CLOUDY    62  53  74 SW8       29.94S
BLOOMINGTON    MOCLDY    57  53  86 S9        29.95F
DECATUR        CLOUDY    61  52  72 SW13      29.96F
PEORIA         MOCLDY    57  50  77 CALM      29.95R
6HR MIN TEMP:  57; 6HR MAX TEMP:  63;

LACON*         CLOUDY    60  51  71 SW5       29.93S
LINCOLN*       MOCLDY    59  52  77 S5        29.93F
SPRINGFIELD    PTCLDY    62  51  67 S7        29.96F
6HR MIN TEMP:  60; 6HR MAX TEMP:  64;

TAYLORVILLE    CLOUDY    57  50  77 S7        29.97F
$$

ILZ033-039-045-046-055>057-062-063-250700-
EAST-CENTRAL ILLINOIS

CITY           SKY/WX    TMP DP  RH WIND       PRES   REMARKS
CHAMPAIGN      CLOUDY    57  54  89 MISG      29.97F
DANVILLE*      CLOUDY    57  53  87 SW9       29.94F
RANTOUL*       MOCLDY    60  53  79 S6        29.96F
MATTOON        CLOUDY    61  52  72 S9        29.98F
PARIS*         CLOUDY    58  54  86 SW8       30.00F
$$

ILZ079-100>102-250700-
SOUTHWEST ILLINOIS

CITY           SKY/WX    TMP DP  RH WIND       PRES   REMARKS
ALTON          CLEAR     59  51  75 CALM      29.99F
BELLEVILLE     CLEAR     56  53  89 S2        29.99S
CAHOKIA*       CLEAR     63  56  78 CALM      29.99S
SPARTA*        CLEAR     60  53  78 S6        30.02S
$$

ILZ064>066-069>071-074>076-080>082-084>086-088>090-092>094-250700-
SOUTH-CENTRAL ILLINOIS

CITY           SKY/WX    TMP DP  RH WIND       PRES   REMARKS
CARBONDALE     PTCLDY    53  50  89 S6        30.03S
6HR MIN TEMP:  51; 6HR MAX TEMP:  56;

CAIRO*         PTCLDY    52  49  89 CALM      30.05S
EFFINGHAM*     MOCLDY    58  50  74 CALM      30.00F
MARION         PTCLDY    55  52  88 S6        30.04S
MT. VERNON     PTCLDY    52  48  87 CALM      30.02F
CENTRALIA*     MOCLDY    57  51  79 S3        30.01S
SALEM*         MOCLDY    59  55  85 S3        30.02R
METROPOLIS*    PTCLDY    49  49 100 CALM      30.05S FOG
$$

ILZ067-068-072-073-078-083-087-091-250700-
SOUTHEAST ILLINOIS

CITY           SKY/WX    TMP DP  RH WIND       PRES   REMARKS
LAWRENCEVILLE  MOCLDY    51  50  96 S6        30.03S FOG
FLORA*         MOCLDY    57  52  82 S8        30.02S
FAIRFIELD*     MOCLDY    56  53  87 S5        30.02S
HARRISBURG*    PTCLDY    50  50 100 CALM      30.04F FOG
ROBINSON*      MOCLDY    51  49  95 S3        30.03S
CARMI*         MOCLDY    51  51  99 CALM      30.03S FOG
$$

ABBREVIATIONS USED IN REMARKS
   TC - TEMPERATURE IN CELSIUS
  WCI - WIND CHILL INDEX
   HX - HEAT INDEX
  VSB - VISIBILITY
$$




USA.gov is the U.S. government's official web portal to all federal, state and local government web resources and services.